This is the latest recevied weather packets stored in our database for station/object SQ7IQO. If no packets are shown the sender has not sent any weather packets the latest 10 day(s).
| Time | Temp. | Humidity | Pressure | Rain* | Wind** | Luminosity | Snow |
|---|---|---|---|---|---|---|---|
| 1788012102 | 21.67° C | 70% | 1015.4 hPa | 0 mm | 0.89 m/s, ° | - | - |
| 1788012041 | 21.67° C | 70% | 1017 hPa | 0 mm | 1.79 m/s, ° | - | - |
| 1788011982 | 21.67° C | 70% | 1015.4 hPa | 0 mm | 0.89 m/s, ° | - | - |
| 1788011922 | 21.67° C | 70% | 1003.5 hPa | 0 mm | 1.34 m/s, ° | - | - |
| 1788011862 | 21.67° C | 70% | 1015.4 hPa | 0 mm | 0.89 m/s, ° | - | - |
| 1788011802 | 21.67° C | 69% | 1015.3 hPa | 0 mm | 0.89 m/s, ° | - | - |
| 1788011742 | 21.67° C | 70% | 1015.7 hPa | 0 mm | 1.34 m/s, ° | - | - |
| 1788011682 | 21.67° C | 69% | 1015.3 hPa | 0 mm | 0.89 m/s, ° | - | - |
| 1788011622 | 21.67° C | 70% | 1015.3 hPa | 0 mm | 1.79 m/s, ° | - | - |
| 1788011562 | 21.67° C | 69% | 1015.4 hPa | 0 mm | 1.34 m/s, ° | - | - |
| 1788011502 | 21.67° C | 70% | 1015.3 hPa | 0 mm | 0.89 m/s, ° | - | - |
| 1788011442 | 21.67° C | 71% | 1015.3 hPa | 0 mm | 0.89 m/s, ° | - | - |
| 1788011382 | 21.67° C | 70% | 1015.3 hPa | 0 mm | 0.89 m/s, ° | - | - |
| 1788011322 | 21.67° C | 70% | 1015.3 hPa | 0 mm | 0.45 m/s, ° | - | - |
| 1788011262 | 21.67° C | 69% | 1015.3 hPa | 0 mm | 1.34 m/s, ° | - | - |
| 1788011202 | 21.67° C | 70% | 1015.3 hPa | 0 mm | 1.79 m/s, ° | - | - |
| 1788011142 | 21.67° C | 69% | 1015.3 hPa | 0 mm | 1.79 m/s, ° | - | - |
| 1788011082 | 22.22° C | 68% | 1015.2 hPa | 0 mm | 1.34 m/s, ° | - | - |
| 1788011022 | 22.22° C | 69% | 1015.2 hPa | 0 mm | 0.89 m/s, ° | - | - |
| 1788010962 | 22.22° C | 68% | 1015.3 hPa | 0 mm | 0.89 m/s, ° | - | - |
| 1788010902 | 22.22° C | 69% | 1015.2 hPa | 0 mm | 0.89 m/s, ° | - | - |
| 1788010842 | 22.22° C | 69% | 1015.2 hPa | 0 mm | 1.79 m/s, ° | - | - |
| 1788010782 | 22.22° C | 68% | 1015.3 hPa | 0 mm | 1.34 m/s, ° | - | - |
| 1788010721 | 22.78° C | 67% | 1015.2 hPa | 0 mm | 1.79 m/s, ° | - | - |
| 1788010661 | 23.89° C | 65% | 1015.2 hPa | 0 mm | 2.24 m/s, ° | - | - |
* Rain latest hour (hover to see other rain measurements)
** Current wind speed in m/s (hover to see current wind gust speed)